This demonstration page uses our WeatherBlox Daily Observations layout. Learn more.

Left ArrowRight Arrow

34.16533, -84.80231

Hourly Observations for October 18, 2020

Temp ( °F °C ) Dew Point ( °F °C ) Humidity (%) Winds ( mph kmh ) Pressure ( in mb ) Visibility ( mi km ) Precip ( " mm )
12:53 am 00:53 Clear 51 10.6 41 5 69 69 Calm 30.26 1025 10 16 0.00 0.00
1:53 am 01:53 Clear 48 8.9 42 5.6 80 80 Calm 30.27 1025 10 16 0.00 0.00
2:53 am 02:53 Clear 50 10 41 5 71 71 Calm 30.27 1025 10 16 0.00 0.00
3:53 am 03:53 Clear 50 10 41 5 71 71 Calm 30.27 1025 10 16 0.00 0.00
4:53 am 04:53 Mostly Cloudy 49 9.4 42 5.6 77 77 Calm 30.28 1025 10 16 0.00 0.00
5:53 am 05:53 Clear 49 9.4 42 5.6 77 77 VRB 3 6 30.29 1026 10 16 0.00 0.00
6:53 am 06:53 Clear 49 9.4 42 5.6 77 77 VRB 3 6 30.30 1026 10 16 0.00 0.00
7:53 am 07:53 Mostly Sunny 50 10 42 5.6 74 74 VRB 3 6 30.31 1027 10 16 0.00 0.00
8:53 am 08:53 Sunny 51 10.6 43 6.1 74 74 VRB 5 7 30.32 1027 10 16 0.00 0.00
9:53 am 09:53 Sunny 55 12.8 44 6.7 67 67 ESE 12 19 30.31 1026 10 16 0.00 0.00
10:53 am 10:53 Sunny 60 15.6 44 6.7 56 56 SE 7 11 30.30 1026 10 16 0.00 0.00
11:53 am 11:53 Sunny 65 18.3 46 7.8 51 51 SE 6 9 30.30 1026 10 16 0.00 0.00
12:53 pm 12:53 Sunny 67 19.4 48 8.9 51 51 E 9 15 30.29 1026 10 16 0.00 0.00
1:53 pm 13:53 Sunny 70 21.1 51 10.6 51 51 ESE 9 15 30.25 1024 10 16 0.00 0.00
2:53 pm 14:53 Sunny 71 21.7 52 11.1 51 51 SE 7 11 30.21 1023 10 16 0.00 0.00
3:53 pm 15:53 Sunny 72 22.2 53 11.7 52 52 ESE 5 7 30.20 1023 10 16 0.00 0.00
4:53 pm 16:53 Sunny 73 22.8 53 11.7 50 50 Calm 30.20 1023 10 16 0.00 0.00
5:53 pm 17:53 Sunny 71 21.7 53 11.7 53 53 ENE 5 7 30.20 1023 10 16 0.00 0.00
6:53 pm 18:53 Sunny 63 17.2 55 12.8 76 76 SE 3 6 30.20 1023 10 16 0.00 0.00
7:53 pm 19:53 Clear 61 16.1 55 12.8 81 81 SE 3 6 30.21 1023 10 16 0.00 0.00
8:53 pm 20:53 Clear 58 14.4 53 11.7 84 84 Calm 30.23 1024 10 16 0.00 0.00
9:53 pm 21:53 Clear 60 15.6 52 11.1 75 75 Calm 30.24 1024 10 16 0.00 0.00
10:53 pm 22:53 Clear 60 15.6 52 11.1 75 75 VRB 5 7 30.24 1024 10 16 0.00 0.00
11:53 pm 23:53 Clear 59 15 52 11.1 78 78 ESE 5 7 30.24 1024 10 16 0.00 0.00

Powered by AerisWeather